Temperature
19 19 19 19 19 18 18 18 18 18 18 18 18 18 18 18 18 18 18 18 18 18 18 18 19 19 19 18 19 19 18 18 18 18 18 17 17 17 17 17 17 17 17
19 19 19 19 19 19 18 18 18 18 18 18 18 18 18 18 18 18 18 18 18 18 18 19 19 19 19 19 19 19 19 19 19 18 18 18 17 17 17 18 18 18 18
19 19 19 18 18 18 18 18 18 18 18 18 18 18 18 18 18 18 18 18 18 18 18 19 19 19 19 19 19 19 19 19 19 19 18 18 18 18 18 18 18 18 18
18 18 18 18 18 18 18 18 18 18 18 18 18 18 18 18 18 18 18 18 18 18 18 18 19 19 19 19 19 19 19 19 19 19 19 19 19 18 18 18 18 18 18
18 18 17 17 17 17 17 17 17 17 17 17 17 18 18 18 18 18 18 18 18 18 18 18 19 19 19 19 19 19 19 19 19 19 19 19 19 19 19 19 18 18 18
18 17 17 17 17 17 17 17 17 17 17 17 17 17 17 18 18 18 18 18 18 18 18 18 18 18 18 19 19 19 19 19 19 19 19 19 19 19 19 19 19 19 18
17 17 17 17 16 16 16 16 16 16 16 16 16 17 17 18 18 18 19 18 18 18 18 18 18 18 18 19 19 19 19 19 19 19 19 19 19 19 19 19 19 19 18
17 17 17 16 16 16 16 16 16 15 15 16 16 16 17 18 18 19 19 19 19 19 18 18 18 18 18 18 18 19 19 19 19 19 19 19 19 19 19 19 19 18 18
17 17 17 16 16 16 16 15 15 15 15 15 15 16 16 17 18 19 19 20 20 20 19 19 18 18 18 18 18 18 18 18 18 18 18 19 19 19 19 19 19 18 18
18 17 17 17 16 16 16 16 15 15 15 15 15 15 15 16 16 16 18 19 19 19 19 19 19 18 18 18 18 18 18 18 18 18 18 18 18 19 19 19 18 18 18
18 17 17 16 16 16 16 16 16 16 15 15 15 15 15 15 15 15 16 17 18 19 19 19 19 18 18 18 18 18 18 18 17 17 17 17 17 18 18 18 17 17 17
18 17 17 16 16 16 16 16 16 15 15 15 14 14 14 14 15 15 15 16 17 18 18 18 18 18 18 18 18 17 17 17 17 17 17 17 17 17 17 17 17 17 17
18 18 17 17 17 16 16 15 15 15 14 14 14 14 14 14 15 15 15 15 16 17 17 18 18 18 18 18 17 17 17 17 17 17 16 16 16 16 16 16 16 16 16
17 17 17 17 17 16 16 15 15 15 14 14 14 14 14 14 14 14 15 15 15 16 17 17 17 17 17 17 17 17 17 17 16 16 16 16 16 16 16 16 16 16 16
16 16 16 16 16 16 15 15 15 15 14 14 14 14 14 14 14 14 15 15 15 15 16 17 17 17 16 17 16 16 16 16 16 15 15 15 15 15 16 15 15 15 15
15 15 15 15 15 15 15 15 15 15 15 15 14 14 14 14 14 14 14 15 15 15 15 16 16 16 16 16 16 16 15 15 15 15 15 15 15 15 15 15 15 15 15
14 14 14 14 14 14 14 14 14 14 14 14 14 14 14 14 14 14 14 14 15 15 15 15 15 15 15 15 15 15 15 15 15 15 14 14 14 14 14 14 14 14 14
14 13 13 13 14 14 14 14 14 14 14 14 14 14 14 14 14 14 14 14 14 14 15 14 14 14 14 14 14 14 14 14 14 14 13 13 13 13 13 13 13 13 13
12 13 13 13 13 13 14 14 14 14 14 14 14 14 13 14 14 14 14 14 14 14 14 14 14 14 13 13 13 13 13 13 13 12 12 12 12 12 12 13 13 13 13
10 11 12 12 12 12 13 13 13 14 14 14 13 13 13 13 14 14 14 14 14 14 14 14 13 13 13 12 12 12 12 12 11 11 11 12 12 12 12 12 13 13 13
9 10 10 11 11 12 12 13 13 13 13 13 13 13 13 13 13 14 13 13 13 13 13 13 12 12 12 12 11 12 12 11 11 11 11 11 12 12 12 12 12 12 12
9 9 9 10 10 11 11 12 13 13 13 13 13 13 13 13 13 13 13 13 12 13 13 12 12 11 11 11 11 11 11 11 11 11 11 11 11 11 11 11 11 11 11
9 9 9 9 10 10 11 12 12 13 13 13 13 13 13 13 13 13 12 12 12 12 12 12 12 11 11 11 11 11 11 12 12 11 11 10 11 11 11 11 10 10 10
9 9 9 9 10 10 10 11 12 12 12 12 12 13 12 12 12 12 12 12 11 12 12 12 12 12 11 11 11 12 12 12 12 11 11 11 11 10 10 10 10 10 9
9 9 9 9 9 10 10 10 11 11 11 12 12 12 12 12 12 12 12 12 11 11 11 12 12 12 11 12 12 12 12 12 12 12 12 11 10 10 10 9 9 9 9
9 9 9 9 9 9 10 10 10 10 11 11 12 12 12 12 12 12 12 12 12 11 11 11 11 11 12 12 12 12 12 12 12 12 12 11 10 10 9 9 9 9 9
Wind_Speed
4 4 3 2 3 4 3 4 5 7 8 6 6 6 6 7 8 9 9 16 21 22 21 20 20 21 22 22 23 22 23 23 24 25 26 26 26 26 25 25 24 23 22
2 3 4 3 3 4 4 3 5 5 5 4 6 6 6 7 8 10 12 14 21 23 22 21 21 22 23 23 24 23 23 23 24 25 26 27 27 27 27 26 26 25 25
3 4 4 5 4 5 6 5 6 6 6 7 8 9 9 8 9 10 12 12 14 22 25 25 24 24 24 24 24 24 24 24 24 25 25 26 27 28 28 28 27 27 27
3 3 4 4 4 4 5 6 7 7 7 7 7 8 8 8 11 10 11 12 12 14 20 27 27 25 25 25 24 24 24 24 25 25 25 26 27 28 29 29 28 28 28
2 2 3 4 4 5 5 7 6 6 7 7 8 8 9 9 9 11 10 10 11 13 13 18 27 26 26 25 25 24 24 24 24 25 25 26 27 28 29 29 29 29 29
2 2 4 1 2 3 4 4 4 5 6 6 10 10 7 8 8 9 10 10 9 12 14 12 14 21 26 26 26 26 25 24 24 24 25 25 26 27 28 29 29 29 29
1 1 4 4 5 5 5 5 5 7 7 6 7 8 9 10 10 9 10 9 10 10 11 12 12 13 16 26 26 26 26 25 24 24 24 25 25 26 27 28 29 29 29
0 4 3 4 6 5 6 6 6 6 7 7 6 7 7 7 7 11 10 11 11 9 10 13 11 11 10 12 19 25 25 25 25 24 24 24 23 24 25 27 28 29 29
1 1 2 4 5 5 6 5 6 7 6 6 6 6 6 5 6 6 6 6 8 9 9 8 11 10 13 10 12 21 25 24 24 24 22 21 20 21 22 24 26 28 28
4 3 3 4 4 5 6 7 5 5 6 7 6 6 8 8 8 7 8 7 7 7 8 7 7 8 9 9 10 13 22 24 22 19 17 17 16 18 19 21 24 26 27
6 6 5 4 4 5 6 6 6 6 6 7 7 7 8 8 8 8 9 7 6 5 5 6 5 5 6 7 7 11 18 19 16 14 12 11 11 12 14 17 20 23 25
6 8 7 5 4 5 5 6 7 8 7 7 7 7 8 7 7 7 8 8 8 7 5 5 6 5 4 3 4 8 11 12 10 8 5 3 1 0 2 4 9 14 18
5 5 5 3 3 5 6 7 7 8 8 8 7 7 7 8 8 8 8 7 7 6 5 3 3 2 3 6 8 14 13 14 13 12 11 10 10 10 10 10 8 5 1
3 1 3 4 5 6 7 7 7 8 7 7 9 8 7 8 8 8 8 7 7 6 5 5 1 3 5 7 12 15 12 15 15 14 14 14 14 14 14 14 14 15 15
8 5 3 4 5 6 7 7 7 8 7 7 7 8 7 7 7 8 8 8 7 6 6 5 2 4 7 7 11 12 11 14 16 16 16 16 16 16 16 16 16 17 17
10 10 8 6 6 7 7 7 7 7 7 7 6 7 7 6 6 7 7 7 7 7 6 3 2 4 8 9 11 13 14 16 16 17 17 17 17 17 17 17 18 17 17
10 11 10 9 8 8 8 8 8 8 7 7 6 7 7 7 5 6 6 6 7 7 8 3 2 6 9 11 11 11 13 12 13 18 18 18 18 18 18 18 18 17 17
9 10 11 10 10 11 10 9 8 8 6 7 6 6 7 6 6 5 5 6 7 8 7 6 4 6 10 12 12 11 10 12 12 18 19 19 19 19 19 19 19 18 18
10 10 10 11 11 11 11 10 9 8 7 6 5 6 6 6 5 4 5 6 6 7 6 7 7 7 8 10 12 12 13 10 12 16 18 18 19 19 19 19 19 19 19
11 10 10 11 11 12 12 11 10 8 6 5 5 5 5 4 4 4 4 5 5 3 5 9 9 9 8 9 11 12 11 9 9 11 12 15 18 19 19 19 19 19 19
13 11 10 10 11 11 12 11 10 10 7 6 5 4 1 4 4 3 2 3 2 2 6 9 10 9 9 9 9 7 10 9 9 10 10 9 9 9 13 16 17 17 18
13 12 11 10 10 11 14 15 12 9 6 5 4 2 5 5 6 6 6 6 5 7 9 10 10 10 8 7 5 7 9 10 8 7 8 7 7 8 6 10 13 17 18
13 12 11 10 9 9 12 13 14 9 7 6 5 4 4 7 7 7 7 8 9 11 12 11 13 11 8 6 5 6 8 9 7 9 9 9 8 8 6 11 14 16 16
10 9 9 9 9 9 8 8 11 9 8 7 6 5 7 9 8 8 7 8 7 7 10 10 11 10 8 6 6 7 9 8 8 9 10 9 8 8 8 8 12 14 15
9 9 9 10 10 6 3 4 7 7 8 8 8 8 9 9 10 10 9 10 10 9 11 14 13 12 12 9 7 7 8 7 8 7 7 6 8 8 5 5 9 11 11
10 11 10 9 9 5 0 3 7 6 8 8 7 8 11 12 11 11 10 10 11 10 10 11 10 10 9 10 10 6 3 5 7 5 4 5 9 7 5 4 5 8 8
Wind_Direction
222 254 270 267 260 254 222 212 222 226 231 240 248 248 250 255 255 252 243 205 200 204 208 211 215 220 223 224 222 220 220 221 221 221 222 221 221 221 220 218 217 216 218
219 241 251 252 247 251 253 239 245 243 245 253 261 264 264 263 259 247 246 232 213 208 212 217 222 223 222 222 222 220 219 220 220 220 221 221 220 221 222 222 220 218 217
213 227 242 242 237 236 238 240 247 248 248 248 248 247 247 245 251 250 245 242 227 216 216 220 223 224 221 218 219 219 217 217 218 218 219 218 218 219 221 223 223 221 218
213 226 246 249 239 235 230 236 239 243 246 249 252 251 247 241 242 240 239 235 234 234 222 221 222 223 221 217 217 217 215 214 216 217 217 215 216 217 220 222 223 222 220
222 203 228 225 227 228 226 238 228 228 244 247 252 250 244 243 244 247 240 234 228 227 232 221 217 218 219 218 216 216 215 213 214 216 216 215 216 217 220 222 223 223 221
130 35 295 272 307 303 277 270 282 252 253 259 268 270 261 253 244 241 241 238 228 225 228 230 214 219 220 217 214 214 214 214 214 216 218 218 217 218 220 223 224 224 223
81 22 294 341 322 295 305 319 315 301 289 273 269 269 259 250 244 236 232 234 232 222 219 219 219 217 216 219 216 213 213 214 214 216 219 221 222 221 221 223 225 225 224
213 293 357 337 316 324 309 280 269 268 280 287 289 291 286 275 260 252 230 224 226 224 219 218 215 218 214 204 214 215 215 217 216 216 220 223 225 225 225 225 226 226 225
190 293 318 300 310 301 293 312 298 286 288 293 288 287 293 287 302 291 290 256 223 215 218 219 214 210 212 208 201 211 217 218 219 221 223 226 229 230 229 228 227 227 226
213 208 226 259 275 286 292 285 294 311 295 289 286 279 273 283 289 295 301 297 275 232 215 217 227 209 203 205 201 199 212 219 221 224 229 232 235 235 234 232 230 229 228
213 207 201 221 248 264 274 293 305 291 284 283 288 292 290 286 272 269 279 286 292 270 225 211 223 228 200 193 194 189 194 202 207 215 224 234 241 243 241 238 236 233 230
211 201 190 196 234 264 289 295 288 283 276 277 281 282 282 282 281 271 267 273 279 281 261 220 208 214 198 162 164 146 155 157 159 160 159 159 151 258 270 252 242 238 234
244 191 174 159 251 275 277 271 273 275 276 276 273 273 275 278 280 279 273 271 267 272 279 258 208 185 142 114 110 112 116 121 119 115 109 101 93 84 77 73 73 79 136
284 93 146 198 236 257 271 277 284 279 283 292 290 283 278 274 274 275 271 273 275 271 261 250 189 134 112 109 123 113 111 112 111 110 107 102 96 91 87 83 81 80 79
319 315 266 232 241 254 263 272 275 279 281 284 289 290 287 281 275 271 272 267 262 266 261 234 208 132 116 112 135 116 113 112 111 109 106 102 98 94 90 85 82 80 80
336 322 304 283 267 262 261 263 274 280 291 291 288 287 290 287 284 279 273 270 257 245 251 223 192 145 129 122 114 108 110 111 109 109 106 103 100 96 90 86 82 79 78
337 326 309 290 273 263 261 259 264 275 282 295 303 309 310 305 304 297 285 269 255 238 236 226 167 145 130 122 114 114 114 108 108 107 106 103 100 96 91 88 85 82 80
324 325 317 302 284 272 262 259 263 275 284 292 301 311 310 316 323 312 305 285 263 239 218 193 161 144 135 127 123 116 112 108 108 109 107 105 101 96 93 90 86 83 81
309 313 316 311 299 285 274 265 257 260 264 276 293 303 305 313 322 329 319 305 282 252 205 167 147 135 130 127 122 114 112 112 111 113 107 104 101 98 95 93 90 86 83
289 294 303 309 307 298 283 270 259 254 254 264 277 282 292 323 341 338 330 317 302 260 163 147 138 132 126 122 123 124 122 124 128 123 108 107 103 97 97 97 95 92 89
273 274 280 290 300 301 287 276 260 252 239 243 260 269 36 70 50 29 7 345 351 109 126 131 130 127 126 130 132 134 135 134 125 128 128 128 117 104 99 96 94 94 91
260 261 260 264 276 288 303 300 276 253 238 232 240 213 142 126 103 87 71 59 70 106 124 126 127 131 127 125 124 138 140 140 140 155 145 139 125 109 100 99 104 102 98
253 253 258 258 263 276 293 285 262 242 225 222 217 206 186 140 141 124 105 86 78 87 106 121 129 129 132 141 150 162 167 157 143 157 142 125 114 106 106 121 127 119 113
254 255 259 262 265 278 303 278 252 240 228 216 197 183 148 154 159 151 136 109 100 100 112 116 120 124 132 154 177 174 159 141 131 137 136 129 130 125 126 138 153 142 132
260 257 260 259 262 264 305 260 231 241 229 215 192 174 159 158 158 158 132 115 106 97 96 105 113 119 120 121 138 143 140 135 133 136 136 128 135 133 138 149 170 166 149
271 261 254 255 260 250 170 200 199 240 238 215 185 166 161 151 151 151 142 132 124 123 122 118 117 120 111 92 82 91 120 151 143 137 138 128 146 143 148 160 163 171 169
Height
1517 1518 1518 1519 1519 1521 1521 1522 1522 1522 1522 1522 1523 1524 1525 1525 1526 1526 1527 1528 1528 1529 1530 1530 1531 1532 1532 1534 1535 1537 1539 1541 1544 1546 1549 1552 1554 1556 1558 1560 1562 1564 1566
1512 1514 1514 1514 1514 1515 1516 1517 1517 1517 1517 1518 1518 1518 1518 1518 1520 1520 1521 1522 1523 1523 1524 1525 1526 1527 1528 1529 1531 1533 1535 1537 1539 1542 1544 1547 1550 1552 1554 1556 1558 1559 1562
1509 1509 1509 1510 1510 1510 1511 1512 1512 1512 1512 1512 1512 1512 1512 1512 1513 1513 1514 1515 1516 1517 1518 1520 1521 1522 1523 1524 1526 1528 1530 1532 1534 1537 1539 1542 1545 1547 1549 1551 1553 1555 1557
1506 1506 1506 1506 1506 1507 1507 1507 1507 1507 1507 1507 1507 1506 1506 1506 1506 1506 1507 1508 1509 1511 1513 1514 1516 1517 1518 1519 1521 1523 1525 1527 1529 1532 1534 1537 1540 1542 1544 1547 1548 1550 1552
1504 1504 1505 1505 1504 1504 1504 1504 1504 1503 1503 1502 1502 1501 1501 1500 1500 1501 1501 1502 1503 1504 1506 1508 1509 1511 1512 1513 1515 1517 1519 1521 1524 1527 1529 1532 1535 1537 1539 1541 1543 1545 1547
1503 1503 1503 1504 1503 1502 1502 1502 1501 1500 1499 1499 1498 1497 1496 1496 1495 1495 1495 1496 1497 1498 1500 1501 1503 1504 1506 1508 1509 1511 1513 1516 1519 1522 1525 1527 1529 1532 1534 1536 1538 1540 1542
1502 1501 1501 1500 1500 1499 1499 1498 1497 1496 1495 1495 1495 1492 1491 1490 1489 1489 1489 1490 1491 1492 1493 1494 1496 1498 1499 1501 1503 1505 1507 1510 1513 1516 1519 1522 1524 1526 1528 1530 1532 1534 1536
1500 1500 1499 1497 1496 1496 1495 1494 1493 1492 1491 1492 1491 1489 1487 1486 1485 1484 1483 1483 1484 1485 1487 1487 1488 1491 1493 1494 1496 1498 1501 1504 1507 1510 1514 1516 1518 1520 1521 1522 1524 1526 1529
1498 1496 1495 1493 1492 1492 1491 1491 1490 1489 1488 1488 1488 1488 1485 1481 1480 1479 1479 1478 1478 1479 1480 1482 1483 1484 1486 1488 1490 1492 1495 1498 1501 1504 1508 1510 1511 1512 1513 1514 1516 1518 1521
1495 1494 1492 1491 1490 1489 1488 1487 1487 1486 1484 1483 1483 1483 1482 1481 1479 1475 1474 1474 1474 1474 1474 1476 1478 1480 1480 1481 1483 1486 1489 1493 1496 1498 1501 1503 1504 1505 1506 1506 1508 1510 1512
1492 1491 1489 1488 1487 1486 1485 1484 1483 1482 1480 1479 1478 1478 1477 1476 1475 1474 1471 1471 1471 1471 1471 1471 1473 1475 1475 1475 1477 1479 1483 1487 1490 1492 1495 1497 1498 1498 1498 1499 1500 1502 1504
1489 1488 1487 1485 1484 1483 1482 1481 1479 1478 1476 1475 1474 1473 1473 1472 1471 1470 1468 1467 1467 1467 1468 1468 1468 1470 1471 1472 1473 1475 1478 1481 1484 1487 1489 1491 1492 1492 1493 1493 1494 1496 1498
1486 1485 1484 1482 1482 1481 1479 1477 1476 1474 1473 1471 1470 1468 1468 1467 1467 1466 1465 1464 1464 1463 1464 1463 1464 1465 1466 1467 1468 1471 1474 1477 1479 1482 1484 1486 1487 1487 1488 1489 1490 1491 1492
1482 1481 1479 1479 1478 1477 1476 1475 1473 1471 1469 1467 1465 1464 1462 1461 1461 1461 1461 1461 1459 1459 1459 1459 1460 1460 1460 1462 1464 1467 1471 1474 1476 1478 1480 1482 1483 1484 1485 1485 1486 1487 1488
1476 1476 1475 1474 1473 1473 1472 1471 1469 1467 1465 1463 1461 1459 1458 1456 1455 1455 1455 1456 1456 1455 1454 1455 1456 1457 1457 1459 1462 1464 1468 1471 1473 1476 1478 1479 1481 1482 1483 1483 1484 1484 1485
1468 1468 1469 1469 1469 1468 1467 1467 1465 1464 1462 1459 1457 1455 1454 1452 1450 1449 1449 1449 1450 1450 1449 1450 1451 1453 1454 1456 1459 1462 1465 1468 1471 1474 1476 1478 1479 1481 1482 1482 1483 1483 1484
1462 1462 1462 1462 1463 1463 1463 1462 1461 1459 1457 1455 1454 1452 1450 1448 1446 1445 1443 1442 1442 1443 1443 1445 1447 1449 1451 1453 1456 1460 1463 1466 1469 1472 1475 1477 1478 1480 1481 1482 1483 1483 1483
1457 1456 1456 1456 1456 1456 1457 1457 1456 1455 1453 1451 1450 1449 1447 1445 1443 1441 1439 1437 1436 1436 1437 1439 1442 1445 1448 1451 1455 1458 1462 1465 1468 1471 1474 1476 1478 1480 1481 1482 1483 1484 1484
1448 1449 1449 1448 1449 1449 1450 1451 1450 1449 1448 1448 1446 1445 1444 1442 1440 1438 1435 1432 1430 1430 1431 1434 1437 1442 1446 1450 1454 1458 1462 1465 1468 1471 1475 1477 1479 1481 1482 1483 1484 1485 1485
1439 1439 1440 1441 1441 1441 1442 1444 1444 1444 1443 1443 1443 1442 1441 1439 1437 1435 1432 1429 1426 1425 1427 1430 1434 1439 1444 1449 1453 1457 1462 1466 1469 1473 1476 1478 1480 1482 1483 1485 1486 1486 1487
1431 1430 1431 1432 1433 1434 1435 1437 1438 1438 1438 1439 1439 1439 1438 1437 1435 1433 1430 1427 1425 1423 1425 1428 1432 1437 1443 1448 1453 1457 1461 1466 1471 1474 1477 1480 1482 1484 1485 1486 1487 1488 1489
1427 1426 1424 1424 1425 1426 1428 1429 1431 1432 1433 1434 1435 1435 1435 1434 1433 1431 1429 1427 1425 1424 1425 1427 1432 1437 1443 1448 1453 1458 1462 1466 1472 1477 1479 1482 1484 1485 1487 1488 1489 1490 1491
1422 1421 1421 1420 1421 1421 1421 1421 1423 1425 1427 1429 1431 1432 1433 1432 1432 1431 1430 1429 1428 1428 1428 1430 1434 1439 1444 1449 1454 1459 1464 1468 1471 1476 1480 1482 1485 1486 1488 1490 1491 1492 1492
1417 1416 1416 1416 1416 1415 1414 1414 1415 1417 1421 1424 1426 1428 1429 1431 1432 1432 1432 1432 1432 1432 1433 1435 1438 1443 1447 1452 1457 1461 1466 1470 1474 1478 1480 1482 1485 1487 1490 1491 1492 1493 1493
1410 1410 1410 1410 1410 1409 1408 1408 1408 1410 1414 1418 1422 1424 1426 1429 1431 1432 1433 1433 1435 1436 1438 1441 1444 1447 1452 1456 1459 1463 1467 1471 1474 1478 1481 1482 1485 1488 1490 1491 1492 1493 1493
1403 1403 1403 1403 1404 1403 1402 1402 1403 1404 1408 1413 1417 1420 1423 1426 1429 1431 1433 1435 1436 1439 1441 1444 1448 1451 1455 1458 1461 1464 1467 1471 1473 1477 1481 1482 1484 1487 1490 1491 1492 1492 1493